Location: Asheville, NC
(35.6000°N, 82.5500°W)
Time: 06:07:01
(UTC-04:00)

N. Korean satellite - Pass Details

Date: 08 October 2017
Orbit: 459 x 517 km, 97.2° (Epoch: 21 October)

Event Time Altitude Azimuth Distance (km) Brightness Sun altitude
Rises 20:07:51 0° 188° (S) 2,579 10.3 -13.8°
Reaches altitude 10° 20:10:06 10° 199° (SSW) 1,691 9.5 -14.3°
Maximum altitude 20:13:21 31° 262° (W) 883 8.6 -15.0°
Drops below altitude 10° 20:16:35 10° 326° (NNW) 1,672 9.8 -15.6°
Sets 20:18:49 0° 337° (NNW) 2,546 10.6 -16.1°
